Back to catalog

CZ-6A DEB

AlivePO
NORAD 61309·DEBRIS·🇨🇳 China

Launched Aug 6, 2024 from Taiyuan Satellite Launch Center

Loading…

Next Passes (next 24 hours)

TLE

FreshSource: Space-Track

Epoch: Sep 14, 2026, 23:07 UTC

1 61309U 24140TW  26257.96330230  .00002042  00000-0  77549-3 0  9991
2 61309  88.9721 261.1497 0021613 195.6937 164.3592 14.30597540106745

Track CZ-6A DEB in real time with AllMySat

Download on the App Store